Flag for Norway Weather past 2 weeks in Nesodden, Norway

Now
54 °F

Passing clouds.


Feels Like: 51 °F
Forecast: 47 / 66 °F
Wind: 9 mph from South

Location: Oslo / Fornebu

Current Time: Aug 2, 2015 at 4:57:12 AM

Latest Report: Aug 2, 2015 at 4:20 AM


Visibility: N/A

Pressure: 29.83 "Hg

Humidity: 88%

Dew point: 50 °F

Location of NesoddenLocation

Historic Weather in Nesodden — Graph

°F

Nesodden temperature yesterday

Maximum temperature yesterday: 57 °F (at 11:50 AM)
Minimum temperature yesterday: 52 °F (at 2:20 PM)
Average temperature yesterday: 55 °F

Past Weeks' High & Low Weather Summary

 TemperatureHumidityPressure
High59 °F (Jul 20, 12:20 PM)100% (Jul 18, 3:20 AM)29.92 "Hg (Jul 18, 3:20 AM)
Low46 °F (Jul 31, 5:20 AM)59% (Jul 20, 11:20 AM)29.36 "Hg (Jul 18, 2:20 PM)
Average53 °F84%29.70 "Hg
* Reported Jul 18 3:20 AM — Aug 2 3:20 AM, Nesodden, Weather by CustomWeather, © 2015

Note: Actual official high and low records may vary slightly from our data, if they occured in-between our weather recording intervals... More about our weather records

Advertising

Nesodden weather history for previous 24 hours

 ConditionsComfort  
Time TempWeatherWind HumidityBarometerVisibility
3:20 AM
Sun, Aug 2
54 °FPassing clouds.7 mph82%29.83 "HgN/A
2:50 AM54 °FPassing clouds.12 mph82%29.83 "HgN/A
2:20 AM54 °FPassing clouds.10 mph88%29.83 "HgN/A
1:50 AM52 °FPassing clouds.7 mph88%29.83 "HgN/A
1:20 AM52 °FPassing clouds.12 mph88%29.83 "HgN/A
12:50 AM52 °FLight rain. Passing clouds.12 mph88%29.83 "HgN/A
11:50 PM
Sat, Aug 1
54 °FLight rain. Passing clouds.5 mph94%29.80 "HgN/A
11:20 PM54 °FPassing clouds.9 mph88%29.80 "HgN/A
10:50 PM54 °FPassing clouds.9 mph88%29.80 "HgN/A
10:20 PM54 °FPartly sunny.12 mph88%29.80 "HgN/A
9:50 PM54 °FPartly sunny.13 mph88%29.80 "HgN/A
9:20 PM54 °FPartly sunny.15 mph88%29.80 "HgN/A
8:50 PM54 °FPartly sunny.20 mph88%29.77 "HgN/A
8:20 PM55 °FScattered clouds.23 mph82%29.77 "HgN/A
7:50 PM55 °FPartly sunny.24 mph82%29.77 "HgN/A
7:20 PM55 °FScattered clouds.25 mph82%29.77 "HgN/A
6:50 PM55 °FScattered clouds.30 mph82%29.74 "HgN/A
6:20 PM55 °FBroken clouds.28 mph88%29.77 "HgN/A
5:50 PM55 °FPartly sunny.31 mph88%29.74 "HgN/A
5:20 PM55 °FBroken clouds.31 mph88%29.74 "HgN/A
4:50 PM55 °FBroken clouds.29 mph88%29.77 "HgN/A
4:20 PM55 °FPassing clouds.26 mph88%29.77 "HgN/A
3:50 PM55 °FBroken clouds.29 mph88%29.77 "HgN/A
3:20 PM54 °FLight rain. Broken clouds.29 mph94%29.77 "HgN/A
2:50 PM54 °FLight rain. Partly sunny.23 mph94%29.77 "Hg6 mi
2:20 PM52 °FRain showers. Partly sunny.30 mph94%29.77 "Hg1 mi
1:50 PM55 °FLight rain. Partly sunny.30 mph88%29.77 "Hg2 mi
1:20 PM55 °FLight rain. Partly sunny.30 mph94%29.77 "Hg2 mi
12:50 PM57 °FPartly sunny.30 mph77%29.80 "HgN/A
12:20 PM57 °FBroken clouds.28 mph82%29.80 "HgN/A
11:50 AM57 °FPassing clouds.28 mph82%29.80 "HgN/A
11:20 AM55 °FPassing clouds.25 mph82%29.80 "HgN/A
10:50 AM55 °FBroken clouds.24 mph82%29.80 "HgN/A
10:20 AM55 °FBroken clouds.24 mph88%29.80 "HgN/A
9:50 AM54 °FPartly sunny.22 mph94%29.80 "HgN/A
9:20 AM54 °FSprinkles. Partly sunny.20 mph82%29.80 "HgN/A
8:50 AM54 °FLight rain. Partly sunny.23 mph88%29.80 "HgN/A
8:20 AM55 °FPassing clouds.25 mph88%29.80 "HgN/A
7:50 AM55 °FPassing clouds.28 mph88%29.80 "HgN/A
7:20 AM55 °FPartly sunny.31 mph88%29.80 "HgN/A
6:50 AM55 °FPartly sunny.30 mph94%29.80 "HgN/A
6:20 AM55 °FPartly sunny.30 mph94%29.80 "HgN/A
5:50 AM55 °FPartly cloudy.28 mph88%29.80 "HgN/A
5:20 AM55 °FPartly cloudy.26 mph88%29.80 "HgN/A
4:50 AM55 °FPassing clouds.28 mph88%29.83 "HgN/A
4:20 AM55 °FPartly cloudy.25 mph88%29.83 "HgN/A
Weather by CustomWeather, © 2015

See weather overviewHow to use our weather pages